Weather History for Cloquet, MN

Change the Weather History Date:

Sunday, October 21, 2012

  Actual Average Record
Temperature  
Mean Temperature 45 °F -  
Max Temperature 55 °F 48 °F 64 °F (1999)
Min Temperature 35 °F 33 °F 23 °F (2008)
Degree Days  
Heating Degree Days 20    
Moisture  
Dew Point 38 °F    
Average Humidity 78    
Maximum Humidity 93    
Minimum Humidity 54    
Precipitation  
Precipitation 0.00 in - - ()
Sea Level Pressure  
Sea Level Pressure 29.86 in    
Wind  
Wind Speed 2 mph (ESE)    
Max Wind Speed 9 mph    
Max Gust Speed -    
Visibility 8 miles    
Events      
Averages and records for this station are not official NWS values.
T = Trace of Precipitation, MM = Missing Value Source: NWS Daily Summary

Daily Weather History Graph

Daily Weather History Graph

Search for Another Location

Airport:

Trip Planner

Search our weather history database for the weather conditions in past years. The results will help you decide how hot, cold, wet, or windy it might be!

Date:

Astronomy

Oct. 21, 2012 Rise Set
Actual Time 7:36 AM CDT 6:11 PM CDT
Civil Twilight 7:05 AM CDT 6:42 PM CDT
Nautical Twilight 6:30 AM CDT 7:17 PM CDT
Astronomical Twilight 5:55 AM CDT 7:52 PM CDT
Moon 2:05 PM CDT (10/21) No Moon Set
Length of Visible Light 11h 36m
Length of Day
10h 34m
Waxing Crescent, 45% of the Moon is Illuminated
Oct 21
Waxing Crescent
Oct 21
First Quarter
Oct 29
Full
Nov 6
Last Quarter
Nov 13
New

Hourly Weather History & Observations

Time (CDT) Temp. Windchill Dew Point Humidity Pressure Visibility Wind Dir Wind Speed Gust Speed Precip Events Conditions
12:16 AM 39.2 °F - 35.6 °F 87% 29.81 in 10.0 mi Calm Calm - N/A   Clear
12:36 AM 39.2 °F - 35.6 °F 87% 29.82 in 10.0 mi Calm Calm - N/A   Clear
12:56 AM 37.4 °F - 35.6 °F 93% 29.82 in 10.0 mi Calm Calm - N/A   Clear
1:16 AM 37.4 °F - 33.8 °F 87% 29.82 in 10.0 mi Calm Calm - N/A   Clear
1:36 AM 35.6 °F - 33.8 °F 93% 29.82 in 7.0 mi Calm Calm - N/A   Clear
1:56 AM 37.4 °F - 33.8 °F 87% 29.83 in 7.0 mi Calm Calm - N/A   Clear
2:16 AM 37.4 °F - 35.6 °F 93% 29.83 in 7.0 mi Calm Calm - N/A   Clear
2:35 AM 37.4 °F 34.9 °F 33.8 °F 87% 29.83 in 5.0 mi ESE 3.5 mph - N/A   Clear
2:56 AM 37.4 °F - 35.6 °F 93% 29.84 in 5.0 mi Calm Calm - N/A   Scattered Clouds
3:16 AM 37.4 °F 34.9 °F 35.6 °F 93% 29.83 in 5.0 mi ESE 3.5 mph - N/A   Scattered Clouds
3:36 AM 37.4 °F - 35.6 °F 93% 29.83 in 5.0 mi Calm Calm - N/A   Clear
3:56 AM 37.4 °F 34.9 °F 35.6 °F 93% 29.83 in 4.0 mi ESE 3.5 mph - N/A   Mostly Cloudy
4:16 AM 37.4 °F 34.9 °F 35.6 °F 93% 29.83 in 4.0 mi SE 3.5 mph - N/A   Scattered Clouds
4:36 AM 37.4 °F - 35.6 °F 93% 29.83 in 4.0 mi Calm Calm - N/A   Scattered Clouds
4:56 AM 37.4 °F - 35.6 °F 93% 29.84 in 3.0 mi Calm Calm - N/A   Mostly Cloudy
5:16 AM 39.2 °F - 35.6 °F 87% 29.84 in 3.0 mi Calm Calm - N/A   Mostly Cloudy
5:35 AM 39.2 °F - 35.6 °F 87% 29.84 in 3.0 mi Calm Calm - N/A   Scattered Clouds
5:56 AM 39.2 °F 37.0 °F 35.6 °F 87% 29.84 in 2.5 mi ESE 3.5 mph - N/A   Clear
6:16 AM 39.2 °F - 35.6 °F 87% 29.84 in 2.5 mi Calm Calm - N/A   Scattered Clouds
6:36 AM 37.4 °F 34.9 °F 35.6 °F 93% 29.84 in 2.0 mi ESE 3.5 mph - N/A   Clear
6:56 AM 37.4 °F - 35.6 °F 93% 29.84 in 2.0 mi Calm Calm - N/A   Clear
7:16 AM 37.4 °F 34.9 °F 35.6 °F 93% 29.84 in 1.8 mi ESE 3.5 mph - N/A   Mostly Cloudy
7:36 AM 37.4 °F 34.9 °F 35.6 °F 93% 29.84 in 1.8 mi ESE 3.5 mph - N/A   Overcast
7:55 AM 37.4 °F 33.8 °F 35.6 °F 93% 29.84 in 2.0 mi ESE 4.6 mph - N/A   Overcast
8:16 AM 37.4 °F 33.8 °F 35.6 °F 93% 29.84 in 1.0 mi East 4.6 mph - N/A   Overcast
8:36 AM 37.4 °F 34.9 °F 35.6 °F 93% 29.84 in 0.8 mi ESE 3.5 mph - N/A   Overcast
8:56 AM 39.2 °F 37.0 °F 37.4 °F 93% 29.85 in 1.8 mi ESE 3.5 mph - N/A   Mostly Cloudy
9:16 AM 39.2 °F 37.0 °F 37.4 °F 93% 29.85 in 1.5 mi ESE 3.5 mph - N/A   Mostly Cloudy
9:36 AM 39.2 °F 37.0 °F 37.4 °F 93% 29.85 in 2.0 mi East 3.5 mph - N/A   Overcast
9:56 AM 41.0 °F - 37.4 °F 87% 29.86 in 2.5 mi Calm Calm - N/A   Mostly Cloudy
10:16 AM 42.8 °F 39.3 °F 39.2 °F 87% 29.86 in 5.0 mi East 5.8 mph - N/A   Scattered Clouds
10:36 AM 44.6 °F 43.1 °F 39.2 °F 81% 29.87 in 7.0 mi ESE 3.5 mph - N/A   Clear
10:56 AM 46.4 °F 44.3 °F 39.2 °F 76% 29.87 in 10.0 mi SE 4.6 mph - N/A   Clear
11:16 AM 46.4 °F 42.9 °F 39.2 °F 76% 29.87 in 10.0 mi East 6.9 mph - N/A   Clear
11:36 AM 46.4 °F 44.3 °F 39.2 °F 76% 29.87 in 10.0 mi ESE 4.6 mph - N/A   Clear
11:56 AM 50.0 °F - 39.2 °F 66% 29.87 in 10.0 mi SSE 6.9 mph - N/A   Clear
12:16 PM 51.8 °F - 39.2 °F 62% 29.87 in 10.0 mi SE 8.1 mph - N/A   Clear
12:36 PM 51.8 °F - 39.2 °F 62% 29.86 in 10.0 mi SE 8.1 mph - N/A   Clear
12:56 PM 53.6 °F - 41.0 °F 62% 29.85 in 10.0 mi ESE 6.9 mph - N/A   Clear
1:16 PM 53.6 °F - 41.0 °F 62% 29.84 in 10.0 mi East 9.2 mph - N/A   Clear
1:36 PM 55.4 °F - 39.2 °F 54% 29.84 in 10.0 mi ESE 8.1 mph - N/A   Clear
1:56 PM 55.4 °F - 39.2 °F 54% 29.84 in 10.0 mi East 6.9 mph - N/A   Clear
2:16 PM 55.4 °F - 39.2 °F 54% 29.84 in 10.0 mi East 6.9 mph - N/A   Clear
2:36 PM 55.4 °F - 39.2 °F 54% 29.84 in 10.0 mi ENE 8.1 mph - N/A   Clear
2:56 PM 55.4 °F - 39.2 °F 54% 29.83 in 10.0 mi East 6.9 mph - N/A   Clear
3:15 PM 55.4 °F - 39.2 °F 54% 29.83 in 10.0 mi East 9.2 mph - N/A   Clear
3:36 PM 53.6 °F - 39.2 °F 58% 29.82 in 10.0 mi East 9.2 mph - N/A   Clear
3:56 PM 53.6 °F - 39.2 °F 58% 29.82 in 10.0 mi East 8.1 mph - N/A   Clear
4:15 PM 53.6 °F - 39.2 °F 58% 29.82 in 10.0 mi East 4.6 mph - N/A   Clear
4:36 PM 51.8 °F - 39.2 °F 62% 29.83 in 10.0 mi ESE 6.9 mph - N/A   Scattered Clouds
4:56 PM 50.0 °F - 39.2 °F 66% 29.85 in 10.0 mi East 3.5 mph - N/A   Mostly Cloudy
5:16 PM 50.0 °F - 39.2 °F 66% 29.85 in 10.0 mi East 5.8 mph - N/A   Overcast
5:36 PM 50.0 °F - 39.2 °F 66% 29.86 in 10.0 mi East 3.5 mph - N/A   Overcast
5:56 PM 50.0 °F - 39.2 °F 66% 29.87 in 10.0 mi NE 4.6 mph - N/A   Overcast
6:16 PM 48.2 °F - 39.2 °F 71% 29.89 in 10.0 mi NE 4.6 mph - N/A   Overcast
6:36 PM 48.2 °F - 39.2 °F 71% 29.89 in 10.0 mi Calm Calm - N/A   Overcast
6:55 PM 48.2 °F - 39.2 °F 71% 29.89 in 10.0 mi East 4.6 mph - N/A   Overcast
7:16 PM 48.2 °F - 39.2 °F 71% 29.89 in 10.0 mi ESE 3.5 mph - N/A   Overcast
7:36 PM 48.2 °F - 39.2 °F 71% 29.89 in 10.0 mi East 4.6 mph - N/A   Overcast
7:56 PM 48.2 °F - 39.2 °F 71% 29.91 in 10.0 mi ESE 4.6 mph - N/A   Overcast
8:16 PM 48.2 °F - 39.2 °F 71% 29.92 in 10.0 mi Calm Calm - N/A   Overcast
8:36 PM 46.4 °F 44.3 °F 39.2 °F 76% 29.92 in 10.0 mi East 4.6 mph - N/A   Overcast
8:56 PM 46.4 °F 45.2 °F 39.2 °F 76% 29.92 in 10.0 mi East 3.5 mph - N/A   Overcast
9:15 PM 46.4 °F - 39.2 °F 76% 29.93 in 10.0 mi Calm Calm - N/A   Overcast
9:36 PM 46.4 °F - 39.2 °F 76% 29.94 in 10.0 mi Calm Calm - N/A   Overcast
9:56 PM 46.4 °F - 39.2 °F 76% 29.94 in 10.0 mi Calm Calm - N/A   Overcast
10:15 PM 46.4 °F - 39.2 °F 76% 29.94 in 10.0 mi Calm Calm - N/A   Scattered Clouds
10:36 PM 44.6 °F 43.1 °F 39.2 °F 81% 29.95 in 10.0 mi NNW 3.5 mph - N/A   Clear
10:56 PM 44.6 °F - 39.2 °F 81% 29.95 in 10.0 mi Calm Calm - N/A   Clear
11:15 PM 46.4 °F - 39.2 °F 76% 29.94 in 10.0 mi Calm Calm - N/A   Clear
11:36 PM 44.6 °F - 39.2 °F 81% 29.94 in 10.0 mi Calm Calm - N/A   Clear
11:56 PM 44.6 °F - 39.2 °F 81% 29.95 in 10.0 mi Calm Calm - N/A   Clear